Date,TemperatureHighF,TemperatureAvgF,TemperatureLowF,DewpointHighF,DewpointAvgF,DewpointLowF,HumidityHigh,HumidityAvg,HumidityLow,PressureMaxIn,PressureMinIn,WindSpeedMaxMPH,WindSpeedAvgMPH,GustSpeedMaxMPH,PrecipitationSumIn
2013-1-1,37.4,32.3,22.1,28.0,20.4,9.0,75,62,48,29.91,29.74,8,2,20,0.01
2013-1-2,32.3,21.8,12.5,15.0,10.3,5.0,79,62,48,30.09,29.89,7,1,14,0.00
2013-1-3,26.6,16.1,6.7,13.0,1.3,-4.0,80,54,29,30.14,30.00,5,1,10,0.00
2013-1-4,39.5,28.9,14.3,25.0,19.9,11.0,87,70,49,30.00,29.82,16,3,18,0.02
2013-1-5,43.7,32.0,20.9,25.0,21.5,19.0,92,67,42,30.25,29.86,8,2,15,0.04
2013-1-6,43.4,31.5,22.0,33.0,27.6,20.0,96,86,64,30.22,29.93,10,1,14,0.01
2013-1-7,41.1,29.8,21.1,31.0,24.5,20.0,97,83,48,30.40,29.96,5,1,11,0.00
2013-1-8,47.3,33.5,17.4,32.0,27.2,16.0,98,80,53,30.37,30.27,19,2,21,0.01
2013-1-9,44.9,34.8,22.2,40.0,30.9,21.0,97,86,68,30.39,30.01,8,2,14,0.00
2013-1-10,47.6,40.5,29.4,34.0,25.5,23.0,77,56,40,30.52,30.06,9,2,23,0.00
2013-1-11,39.9,32.8,22.9,37.0,28.7,21.0,96,85,72,30.51,30.20,2,0,5,0.19
2013-1-12,44.9,41.7,38.0,44.0,41.1,37.0,98,97,96,30.21,30.11,1,0,4,0.07
2013-1-13,51.4,46.4,42.0,50.0,46.0,42.0,99,98,95,30.15,30.01,7,2,13,0.01
2013-1-14,62.6,52.0,40.1,54.0,45.7,32.0,99,81,48,30.24,29.92,7,2,15,0.04
2013-1-15,41.7,37.2,33.7,37.0,32.3,29.0,97,83,64,30.29,30.20,2,0,4,0.09
2013-1-16,35.8,33.3,32.0,33.0,31.8,29.0,98,94,75,30.23,29.78,3,0,4,0.27
2013-1-17,44.0,36.2,30.9,33.0,29.1,21.0,97,77,53,30.06,29.84,7,1,16,0.37
2013-1-18,32.0,23.5,14.4,21.0,4.4,-4.0,79,46,29,30.46,30.02,8,2,16,0.00
2013-1-19,48.1,38.1,16.2,36.0,27.6,10.0,78,67,49,30.39,29.91,15,5,28,0.03
2013-1-20,55.2,44.2,29.3,38.0,28.9,10.0,78,57,35,29.92,29.56,16,5,29,0.00
2013-1-21,29.0,25.7,20.5,23.0,12.6,6.0,93,60,41,30.10,29.77,7,1,12,0.00
2013-1-22,24.8,21.3,12.6,23.0,8.8,-3.0,94,62,33,30.07,29.74,9,2,17,0.00
2013-1-23,16.5,11.4,6.6,3.0,-4.8,-9.0,67,49,37,30.15,30.06,13,2,18,0.00
2013-1-24,20.7,11.3,2.7,-3.0,-7.0,-8.0,62,45,28,30.21,30.05,7,2,19,0.00
2013-1-25,25.7,16.7,7.4,13.0,-3.5,-9.0,81,42,27,30.30,30.04,7,1,11,0.00
2013-1-26,26.1,17.5,8.5,14.0,5.1,-6.0,92,62,34,30.23,29.99,8,2,14,0.00
2013-1-27,31.3,20.2,11.8,7.0,3.3,1.0,66,50,30,30.46,30.23,6,2,12,0.00
2013-1-28,32.0,23.2,11.7,29.0,15.9,4.0,96,76,38,30.44,29.99,5,1,10,0.03
2013-1-29,34.1,31.7,28.8,33.0,30.7,28.0,98,96,93,30.18,29.98,2,0,3,0.11
2013-1-30,58.3,49.9,33.7,57.0,48.7,33.0,98,95,90,30.15,29.50,20,6,30,0.15
2013-1-31,62.1,49.6,31.6,59.0,38.1,14.0,97,68,35,29.60,29.02,28,9,40,0.78